[[{"header":{"parameterUnit":"m.s-1","parameterCategory":2,"la1":30.2992,"la2":30.254,"lo1":-89.0895,"lo2":-89.0443,"dy":0.0025,"dx":0.0025,"nx":19,"ny":19,"refTime":"2026-03-27T21:00:00:Z","depth":"0","parameterNumber":2,"parameterNumberName":"U-component_of_CURRENTS"},"data":[0,0,0,0.2864,0.2867,0.2964,0.2964,0.3049,0.305,0,0,0,0,0,0,0,0,0,0,0,0.2817,0.2818,0.2864,0.2868,0.2964,0.2964,0.3049,0.305,0,0,0,0,0,0,0,0,0,0,0,0.2816,0.2817,0.2819,0.2868,0.2964,0.2964,0.3048,0.2979,0,0,0,0,0,0,0,0,0,0,0.2887,0.2851,0.2817,0.2819,0.2869,0.2964,0.2964,0.2976,0.2983,0.3002,0,0.303,0,0.3061,0.3057,0.3057,0,0,0,0.2841,0.2845,0.2887,0.2819,0.287,0.2964,0.2913,0.298,0.2988,0.3012,0.3031,0.3035,0.3062,0.3058,0.3058,0.3208,0.3209,0,0,0.2836,0.2816,0.2881,0.2893,0.2912,0.291,0.2916,0.2985,0.2991,0.3032,0.3038,0.3064,0.3058,0.3059,0.3207,0.3208,0,0,0,0.2838,0.2812,0.2852,0.2888,0.292,0.2914,0.2921,0.2987,0.3006,0.3039,0.3065,0.3059,0.306,0.3206,0.3208,0.3306,0,0,0,0.2834,0.2817,0.285,0.2837,0.2919,0.296,0.2921,0.3,0.301,0.3064,0.3059,0.3061,0.3205,0.3207,0.3301,0.3368,0,0,0,0.2809,0.2814,0.2833,0.2836,0.2893,0.296,0.2981,0.3002,0.3027,0.3057,0.3062,0.3205,0.3207,0.3297,0.336,0.3447,0,0,0,0.2773,0.2814,0.2833,0.2892,0.2893,0.2987,0.298,0.3027,0.3053,0.306,0.3205,0.3207,0.3296,0.3355,0.3442,0.341,0.3432,0,0,0.2804,0.2817,0.2855,0.2876,0.2965,0.297,0.3081,0.3098,0.3093,0.3173,0.3177,0.3303,0.3359,0.3446,0.3524,0.3543,0,0,0,0.2853,0.2875,0.2905,0.2966,0.3033,0.3122,0.314,0.3174,0.3243,0.3126,0.3316,0.3349,0.34,0.3369,0.3385,0.344,0.3217,0.3216,0.3216,0.2849,0.2902,0.2969,0.3044,0.3116,0.3222,0.3299,0.3354,0.3319,0.3367,0.3437,0.3586,0.3553,0.3565,0.3622,0.3434,0.3435,0.3435,0.3435,0.2894,0.2937,0.3021,0.3102,0.3218,0.3322,0.3471,0.3486,0.3628,0.3554,0.3599,0.3485,0.3587,0.3642,0.3442,0.3441,0.344,0.3439,0.3439,0.2881,0.291,0.297,0.31,0.3258,0.3393,0.3565,0.3672,0.3719,0.3798,0.3754,0.3751,0.3793,0.3813,0.3814,0.3815,0.3815,0.3816,0.3816,0.2839,0.2903,0.2965,0.3108,0.3196,0.3383,0.3632,0.3734,0.3864,0.3886,0.3885,0.3859,0.3701,0.3679,0.3827,0.3825,0.3824,0.3823,0.3822,0.2823,0.2849,0.2932,0.3005,0.321,0.3302,0.3553,0.3764,0.3924,0.3968,0.4043,0.3927,0.3899,0.3884,0.3866,0.4055,0.4055,0.4055,0.4055,0.2794,0.2821,0.2904,0.2996,0.3145,0.3274,0.3338,0.3535,0.3878,0.4037,0.4174,0.4075,0.4063,0.4039,0.4021,0.4004,0.4223,0.4223,0.4224,0.2789,0.2825,0.2857,0.2958,0.3104,0.3182,0.3115,0.3258,0.3873,0.4239,0.4272,0.4265,0.4123,0.4099,0.4052,0.4022,0.3988,0,0]},{"header":{"parameterUnit":"m.s-1","parameterCategory":2,"la1":30.2992,"la2":30.254,"lo1":-89.0895,"lo2":-89.0443,"dy":0.0025,"dx":0.0025,"nx":19,"ny":19,"refTime":"2026-03-27T21:00:00:Z","depth":"0","parameterNumber":3,"parameterNumberName":"V-component_of_CURRENTS"},"data":[0,0,0,-0.0252,-0.0253,-0.0316,-0.0317,-0.038,-0.0381,0,0,0,0,0,0,0,0,0,0,0,-0.0225,-0.0225,-0.0252,-0.0253,-0.0316,-0.0317,-0.038,-0.0381,0,0,0,0,0,0,0,0,0,0,0,-0.0225,-0.0225,-0.0226,-0.0254,-0.0316,-0.0317,-0.038,-0.0336,0,0,0,0,0,0,0,0,0,0,-0.0277,-0.0251,-0.0225,-0.0226,-0.0254,-0.0316,-0.0317,-0.0334,-0.0339,-0.0347,0,-0.0357,0,-0.0373,-0.0385,-0.0385,0,0,0,-0.0251,-0.0248,-0.027,-0.0226,-0.0255,-0.0316,-0.0287,-0.0337,-0.0342,-0.0353,-0.0358,-0.0361,-0.0375,-0.0385,-0.0385,-0.0359,-0.0358,0,0,-0.0248,-0.0232,-0.0266,-0.0273,-0.0271,-0.0285,-0.0289,-0.034,-0.0342,-0.0358,-0.0362,-0.0376,-0.0385,-0.0386,-0.0359,-0.0358,0,0,0,-0.0239,-0.023,-0.0251,-0.027,-0.0285,-0.0287,-0.0292,-0.034,-0.0348,-0.0363,-0.0376,-0.0386,-0.0387,-0.036,-0.0359,-0.0241,0,0,0,-0.0237,-0.0225,-0.0249,-0.024,-0.0284,-0.0315,-0.029,-0.0345,-0.0351,-0.0376,-0.0386,-0.0387,-0.0361,-0.036,-0.0246,-0.0179,0,0,0,-0.0222,-0.0223,-0.0232,-0.0239,-0.0269,-0.0315,-0.0326,-0.0346,-0.0359,-0.0385,-0.0387,-0.0362,-0.036,-0.025,-0.0188,-0.0105,0,0,0,-0.0203,-0.0177,-0.0231,-0.0205,-0.0268,-0.0243,-0.0326,-0.0319,-0.0329,-0.0386,-0.0361,-0.0359,-0.0252,-0.0193,-0.011,-0.0008,0.0025,0,0,-0.015,-0.0171,-0.0153,-0.0202,-0.0146,-0.0234,-0.0181,-0.0242,-0.0308,-0.0345,-0.0345,-0.0244,-0.0188,-0.0106,0.0094,0.0125,0,0,0,-0.0121,-0.0102,-0.0094,-0.0086,-0.0098,-0.0092,-0.0156,-0.0188,-0.0221,-0.031,-0.0241,-0.0209,-0.0161,-0.0111,-0.0087,-0.0271,-0.0351,-0.0351,-0.0351,-0.0023,-0.0028,0.0027,0.0028,0.0043,0.0009,0.0011,-0.0047,-0.013,-0.0125,-0.0111,0.0036,0.0091,0.011,-0.0081,-0.0118,-0.0118,-0.0117,-0.0117,0.0085,0.0122,0.0123,0.0171,0.0164,0.019,0.0163,0.0109,0.0106,0.0002,0.0043,0.0013,0.0144,-0.007,-0.011,-0.0111,-0.0112,-0.0113,-0.0113,0.0151,0.0177,0.0184,0.0269,0.0312,0.0304,0.041,0.0331,0.0236,0.0267,0.0301,0.0299,0.011,0.028,0.0281,0.0281,0.0282,0.0282,0.0283,0.0217,0.0239,0.0318,0.038,0.0437,0.0534,0.0547,0.0587,0.0553,0.0456,0.0456,0.0151,0.0157,0.014,0.0293,0.0292,0.029,0.0289,0.0288,0.0327,0.033,0.0471,0.0536,0.0692,0.0872,0.0871,0.0953,0.0915,0.0924,0.0451,0.0554,0.0529,0.0508,0.0499,0.0737,0.0737,0.0737,0.0737,0.0406,0.0416,0.0624,0.0765,0.0953,0.1038,0.1295,0.1276,0.0937,0.0703,0.0528,0.0421,0.0411,0.0369,0.0351,0.0334,0.0524,0.0523,0.0522,0.0502,0.0554,0.0725,0.0855,0.1053,0.1263,0.1492,0.1507,0.0935,0.0486,0.0253,0.0262,0.0067,0.0066,-0.0037,-0.0047,-0.0089,0,0]}],[{"header":{"parameterUnit":"m.s-1","parameterCategory":2,"la1":30.2992,"la2":30.254,"lo1":-89.0895,"lo2":-89.0443,"dy":0.0025,"dx":0.0025,"nx":19,"ny":19,"refTime":"2026-03-27T21:00:00:Z","depth":"2","parameterNumber":2,"parameterNumberName":"U-component_of_CURRENTS"},"data":[0,0,0,0.2846,0.2849,0.2955,0.2955,0.3036,0.3037,0,0,0,0,0,0,0,0,0,0,0,0.2799,0.28,0.2846,0.285,0.2955,0.2955,0.3036,0.3037,0,0,0,0,0,0,0,0,0,0,0,0.2798,0.2799,0.2801,0.285,0.2955,0.2955,0.3036,0.2963,0,0,0,0,0,0,0,0,0,0,0.2864,0.2827,0.2799,0.2801,0.2851,0.2955,0.2955,0.2959,0.2967,0.2983,0,0.3018,0,0.3049,0.3044,0.3045,0,0,0,0.282,0.2821,0.2869,0.2801,0.2853,0.2955,0.2899,0.2964,0.2973,0.2993,0.302,0.3023,0.305,0.3045,0.3046,0.3188,0.3189,0,0,0.2814,0.2794,0.2864,0.2876,0.2905,0.2896,0.2903,0.2969,0.2976,0.302,0.3026,0.3052,0.3046,0.3047,0.3188,0.3189,0,0,0,0.2817,0.2789,0.2836,0.2871,0.2906,0.29,0.2908,0.2972,0.2995,0.3027,0.3052,0.3046,0.3048,0.3187,0.3188,0.3284,0,0,0,0.2812,0.2795,0.2834,0.2819,0.2906,0.2947,0.2909,0.2989,0.2999,0.3052,0.3046,0.3049,0.3186,0.3188,0.328,0.3341,0,0,0,0.2789,0.2791,0.2816,0.2819,0.2882,0.2947,0.2971,0.2992,0.3016,0.3045,0.3049,0.3185,0.3187,0.3276,0.3334,0.3419,0,0,0,0.2746,0.2791,0.2815,0.288,0.2882,0.2975,0.2971,0.3013,0.3037,0.3047,0.3186,0.3188,0.3275,0.3329,0.3414,0.3364,0.3384,0,0,0.2777,0.2794,0.2836,0.2861,0.2947,0.2956,0.3064,0.308,0.3074,0.3153,0.3157,0.3281,0.3333,0.3418,0.3471,0.3488,0,0,0,0.2829,0.285,0.2881,0.2945,0.3014,0.31,0.3118,0.3154,0.322,0.3107,0.3292,0.3322,0.3373,0.3332,0.3345,0.3197,0.3197,0.3196,0.3196,0.2817,0.2874,0.2939,0.3014,0.3088,0.3195,0.327,0.3327,0.3293,0.3339,0.3408,0.3551,0.3508,0.3518,0.3406,0.3406,0.3406,0.3407,0.3407,0.2859,0.2903,0.2988,0.3068,0.3186,0.3294,0.3437,0.3453,0.3591,0.352,0.3563,0.3444,0.3538,0.3415,0.3413,0.3412,0.3411,0.3411,0.341,0.2844,0.2873,0.2934,0.3066,0.3226,0.3363,0.3535,0.3637,0.3678,0.3754,0.37,0.3696,0.362,0.3771,0.3771,0.3772,0.3773,0.3773,0.3773,0.2805,0.2866,0.293,0.3074,0.3163,0.3352,0.36,0.3698,0.3812,0.3824,0.3823,0.3674,0.3662,0.3642,0.3784,0.3782,0.3781,0.378,0.3779,0.2784,0.282,0.2896,0.2969,0.3167,0.3244,0.351,0.371,0.3868,0.3902,0.3862,0.3856,0.3827,0.3813,0.3796,0.397,0.397,0.397,0.397,0.2761,0.279,0.2871,0.2947,0.3077,0.3192,0.3219,0.3309,0.3549,0.358,0.3595,0.3454,0.3458,0.3397,0.3392,0.3362,0.3423,0.3421,0.342,0.2757,0.2789,0.2821,0.29,0.3013,0.3066,0.2919,0.2719,0.2928,0.3383,0.3341,0.3964,0.3794,0.3785,0.3718,0.3701,0.3662,0,0]},{"header":{"parameterUnit":"m.s-1","parameterCategory":2,"la1":30.2992,"la2":30.254,"lo1":-89.0895,"lo2":-89.0443,"dy":0.0025,"dx":0.0025,"nx":19,"ny":19,"refTime":"2026-03-27T21:00:00:Z","depth":"2","parameterNumber":3,"parameterNumberName":"V-component_of_CURRENTS"},"data":[0,0,0,-0.0195,-0.0197,-0.0269,-0.0269,-0.0328,-0.0328,0,0,0,0,0,0,0,0,0,0,0,-0.0168,-0.0169,-0.0195,-0.0197,-0.0269,-0.0269,-0.0328,-0.0328,0,0,0,0,0,0,0,0,0,0,0,-0.0168,-0.0169,-0.0169,-0.0198,-0.0269,-0.0269,-0.0328,-0.028,0,0,0,0,0,0,0,0,0,0,-0.0214,-0.0189,-0.0169,-0.017,-0.0198,-0.0269,-0.0269,-0.0278,-0.0283,-0.0288,0,-0.0304,0,-0.0321,-0.0332,-0.0332,0,0,0,-0.0192,-0.0185,-0.0213,-0.017,-0.0199,-0.0269,-0.0235,-0.0281,-0.0287,-0.0294,-0.0305,-0.0308,-0.0322,-0.0332,-0.0333,-0.0297,-0.0296,0,0,-0.0188,-0.0172,-0.0209,-0.0217,-0.0224,-0.0233,-0.0237,-0.0285,-0.0288,-0.0305,-0.0309,-0.0323,-0.0333,-0.0333,-0.0298,-0.0297,0,0,0,-0.018,-0.0169,-0.0196,-0.0214,-0.0232,-0.0235,-0.024,-0.0285,-0.0297,-0.031,-0.0324,-0.0333,-0.0334,-0.0299,-0.0298,-0.0182,0,0,0,-0.0177,-0.0165,-0.0194,-0.0184,-0.0231,-0.0263,-0.0239,-0.0294,-0.03,-0.0323,-0.0333,-0.0334,-0.03,-0.0298,-0.0187,-0.0117,0,0,0,-0.0164,-0.0163,-0.0176,-0.0183,-0.0218,-0.0263,-0.0277,-0.0296,-0.0308,-0.0332,-0.0334,-0.03,-0.0298,-0.0192,-0.0125,-0.0045,0,0,0,-0.0139,-0.0118,-0.0175,-0.0154,-0.0218,-0.0192,-0.0277,-0.0266,-0.0274,-0.0333,-0.03,-0.0298,-0.0193,-0.013,-0.0051,0.0036,0.0068,0,0,-0.0087,-0.0112,-0.0096,-0.0148,-0.0091,-0.0182,-0.0126,-0.0185,-0.025,-0.0283,-0.0283,-0.0186,-0.0126,-0.0046,0.0145,0.0175,0,0,0,-0.0062,-0.0041,-0.0034,-0.0028,-0.0043,-0.0031,-0.0097,-0.0129,-0.016,-0.0251,-0.0179,-0.0145,-0.0098,-0.0058,-0.0034,-0.0289,-0.0289,-0.0289,-0.0289,0.0042,0.0034,0.0093,0.0095,0.0106,0.0074,0.0077,0.0019,-0.0066,-0.006,-0.0047,0.0101,0.0145,0.0164,-0.0054,-0.0054,-0.0053,-0.0053,-0.0053,0.0154,0.0193,0.0193,0.0245,0.0239,0.0262,0.0233,0.0179,0.0173,0.007,0.0109,0.0067,0.0197,-0.0043,-0.0045,-0.0047,-0.0047,-0.0048,-0.0049,0.0223,0.0251,0.0263,0.0345,0.0393,0.0381,0.0476,0.04,0.0304,0.0334,0.0355,0.0353,0.0179,0.0343,0.0344,0.0345,0.0345,0.0346,0.0346,0.0288,0.0315,0.0395,0.046,0.0519,0.0609,0.0618,0.0649,0.061,0.0511,0.0511,0.0235,0.0222,0.0202,0.0357,0.0355,0.0354,0.0353,0.0352,0.0404,0.0396,0.054,0.0612,0.0786,0.0947,0.0941,0.0999,0.096,0.0961,0.061,0.06,0.0575,0.0555,0.0543,0.0777,0.0777,0.0777,0.0777,0.0478,0.0485,0.0687,0.0849,0.1046,0.1131,0.134,0.1274,0.1072,0.0894,0.0888,0.0807,0.0788,0.0767,0.0742,0.073,0.1014,0.1014,0.1014,0.0572,0.0623,0.0788,0.0944,0.1163,0.1362,0.1519,0.1396,0.1072,0.1018,0.0869,0.0805,0.0665,0.0644,0.0586,0.0556,0.0527,0,0]}],[{"header":{"parameterUnit":"m.s-1","parameterCategory":2,"la1":30.2992,"la2":30.254,"lo1":-89.0895,"lo2":-89.0443,"dy":0.0025,"dx":0.0025,"nx":19,"ny":19,"refTime":"2026-03-27T21:00:00:Z","depth":"4","parameterNumber":2,"parameterNumberName":"U-component_of_CURRENTS"},"data":[0,0,0,0.1793,0.1797,0.1968,0.1969,0.2127,0.2128,0,0,0,0,0,0,0,0,0,0,0,0.1749,0.175,0.1793,0.1797,0.1968,0.1969,0.2127,0.2128,0,0,0,0,0,0,0,0,0,0,0,0.1748,0.175,0.1751,0.1798,0.1968,0.1969,0.2127,0.2015,0,0,0,0,0,0,0,0,0,0,0.1857,0.1824,0.1749,0.1751,0.1799,0.1968,0.1969,0.201,0.2022,0.2029,0,0.2067,0,0.209,0.2136,0.2137,0,0,0,0.1807,0.1814,0.1854,0.1752,0.18,0.1967,0.1894,0.2017,0.203,0.2044,0.2069,0.2076,0.2093,0.2137,0.2138,0.2325,0.2326,0,0,0.1798,0.1784,0.1845,0.1862,0.1859,0.1888,0.1899,0.2026,0.2047,0.207,0.2079,0.2095,0.2138,0.2139,0.2323,0.2325,0,0,0,0.1764,0.1777,0.1816,0.1856,0.1886,0.1893,0.1905,0.2042,0.2054,0.2081,0.2097,0.2139,0.214,0.2322,0.2324,0.2389,0,0,0,0.1759,0.1756,0.1812,0.1805,0.1884,0.1975,0.1919,0.2046,0.2061,0.2096,0.2139,0.2141,0.2321,0.2323,0.2385,0.2377,0,0,0,0.1738,0.1754,0.1777,0.1804,0.1872,0.1973,0.1994,0.205,0.2069,0.2137,0.2142,0.232,0.2323,0.2381,0.2372,0.2475,0,0,0,0.1712,0.1756,0.1778,0.1831,0.187,0.1984,0.1994,0.2103,0.217,0.2139,0.2321,0.2324,0.2379,0.2369,0.2471,0.2156,0,0,0,0.1745,0.176,0.1788,0.181,0.1896,0.196,0.2075,0.2171,0.2208,0.2273,0.2279,0.2386,0.2372,0.2474,0.2317,0,0,0,0,0.1782,0.181,0.1841,0.1897,0.1974,0.2074,0.2169,0.2228,0.2353,0.2258,0.2422,0.2411,0.2474,0.228,0.2337,0.2336,0.2336,0.2336,0.2336,0.1791,0.1826,0.1884,0.1952,0.203,0.2172,0.2269,0.2371,0.24,0.2485,0.2493,0.2646,0.2446,0.2544,0.2544,0.2544,0.2545,0.2545,0.2545,0.1799,0.1809,0.1896,0.1968,0.2077,0.219,0.2369,0.2445,0.2608,0.2587,0.2647,0.2395,0.2553,0.2551,0.255,0.2549,0.2549,0.2548,0.2548,0.1745,0.1757,0.1828,0.1938,0.2068,0.2218,0.2366,0.2525,0.2656,0.2731,0.2581,0.2706,0.267,0.2804,0.2805,0.2805,0.2806,0.2806,0.2806,0.1632,0.1707,0.177,0.1911,0.1991,0.214,0.2398,0.251,0.2688,0.2609,0.2776,0.2734,0.2725,0.2687,0.2813,0.2812,0.2811,0.281,0.281,0.1542,0.1594,0.1676,0.1757,0.1923,0.2002,0.2269,0.243,0.2554,0.2567,0.2559,0.2569,0.2519,0.2516,0.2467,0.2534,0.253,0.2526,0,0.1466,0.1499,0.1589,0.167,0.1756,0.1904,0.1983,0.2161,0.2335,0.2249,0.2565,0.255,0.2556,0.2492,0.2484,0.2421,0,0,0,0.1414,0.1452,0.1489,0.1588,0.1657,0.178,0.1992,0.2007,0.2273,0.232,0.2437,0.246,0.2672,0.2834,0.2783,0.2772,0.2708,0,0]},{"header":{"parameterUnit":"m.s-1","parameterCategory":2,"la1":30.2992,"la2":30.254,"lo1":-89.0895,"lo2":-89.0443,"dy":0.0025,"dx":0.0025,"nx":19,"ny":19,"refTime":"2026-03-27T21:00:00:Z","depth":"4","parameterNumber":3,"parameterNumberName":"V-component_of_CURRENTS"},"data":[0,0,0,0.0167,0.0167,0.0139,0.0139,0.0092,0.0092,0,0,0,0,0,0,0,0,0,0,0,0.018,0.018,0.0167,0.0167,0.0139,0.0139,0.0092,0.0092,0,0,0,0,0,0,0,0,0,0,0,0.018,0.018,0.018,0.0167,0.0139,0.0139,0.0092,0.0113,0,0,0,0,0,0,0,0,0,0,0.014,0.0155,0.018,0.018,0.0167,0.0139,0.0139,0.0114,0.0112,0.0105,0,0.0112,0,0.0105,0.0089,0.0089,0,0,0,0.0155,0.0157,0.0155,0.018,0.0167,0.0139,0.0148,0.0113,0.011,0.0102,0.0112,0.011,0.0104,0.0089,0.0089,0.009,0.009,0,0,0.0156,0.0166,0.0157,0.0154,0.0175,0.0149,0.0148,0.0111,0.0111,0.0112,0.0109,0.0103,0.0089,0.0089,0.009,0.009,0,0,0,0.0169,0.0167,0.0165,0.0155,0.0154,0.0149,0.0147,0.0113,0.0114,0.0108,0.0103,0.0089,0.0088,0.0089,0.009,0.0186,0,0,0,0.0169,0.0175,0.0166,0.017,0.0155,0.0134,0.015,0.0117,0.0112,0.0103,0.0089,0.0088,0.0089,0.0089,0.0183,0.0253,0,0,0,0.0179,0.0176,0.0179,0.0171,0.0165,0.0134,0.0133,0.0116,0.011,0.0089,0.0088,0.0089,0.0089,0.018,0.0247,0.0256,0,0,0,0.018,0.0201,0.0179,0.0212,0.0165,0.0183,0.0133,0.0125,0.0112,0.0088,0.0089,0.009,0.0179,0.0243,0.0253,0.0263,0,0,0,0.0209,0.0204,0.0228,0.0209,0.0247,0.0185,0.0224,0.0175,0.0118,0.0097,0.0097,0.0184,0.0246,0.0256,0.0299,0,0,0,0,0.024,0.0261,0.0268,0.0289,0.0283,0.0294,0.0238,0.021,0.0176,0.0116,0.017,0.0206,0.0209,0.0204,0.0093,0.0093,0.0093,0.0092,0.0092,0.0296,0.0308,0.036,0.0376,0.0386,0.0361,0.0357,0.0308,0.0241,0.0231,0.0273,0.0336,0.0334,0.0243,0.0243,0.0244,0.0244,0.0244,0.0245,0.0379,0.0429,0.0445,0.0499,0.0507,0.0538,0.0486,0.0435,0.0409,0.0345,0.0341,0.0293,0.0254,0.0252,0.0251,0.0249,0.0249,0.0248,0.0248,0.044,0.0467,0.05,0.058,0.0661,0.0657,0.0697,0.0626,0.0512,0.0521,0.0466,0.0395,0.0398,0.0498,0.0498,0.0499,0.0499,0.0499,0.0499,0.0492,0.0524,0.0595,0.0678,0.0753,0.0827,0.0819,0.0776,0.0664,0.0595,0.0545,0.0421,0.0412,0.0411,0.0505,0.0504,0.0503,0.0503,0.0503,0.0569,0.0575,0.0678,0.0749,0.0911,0.0964,0.0959,0.0854,0.081,0.0724,0.0605,0.0599,0.0561,0.055,0.0552,0.0691,0.0691,0.0692,0,0.0618,0.0628,0.0764,0.0877,0.0995,0.1044,0.1011,0.0952,0.0799,0.079,0.0785,0.0656,0.0648,0.0608,0.0598,0.0604,0,0,0,0.0671,0.0705,0.0804,0.0906,0.1039,0.1028,0.1008,0.0954,0.084,0.0774,0.0705,0.0701,0.0617,0.0522,0.0448,0.0438,0.0433,0,0]}]]